TimeCST,TemperatureF,Dew PointF,Humidity,Sea Level PressureIn,VisibilityMPH,Wind Direction,Wind SpeedMPH,Gust SpeedMPH,PrecipitationIn,Events,Conditions,WindDirDegrees,DateUTC
12:15 AM,37.0,36.3,97,30.09,10.0,SE,3.5,-,N/A,,Clear,140,2014-01-12 06:15:00
12:35 AM,37.9,35.8,92,30.08,10.0,ESE,3.5,-,N/A,,Clear,120,2014-01-12 06:35:00
12:55 AM,38.7,34.0,83,30.08,10.0,SSE,3.5,-,N/A,,Clear,150,2014-01-12 06:55:00
1:15 AM,38.1,34.0,85,30.08,10.0,Calm,Calm,-,N/A,,Clear,0,2014-01-12 07:15:00
1:35 AM,37.9,34.0,86,30.08,10.0,Calm,Calm,-,N/A,,Clear,0,2014-01-12 07:35:00
1:55 AM,35.6,33.8,93,30.08,10.0,Calm,Calm,-,N/A,,Clear,0,2014-01-12 07:55:00
2:15 AM,35.2,34.5,97,30.08,10.0,ESE,4.6,-,N/A,,Clear,120,2014-01-12 08:15:00
2:35 AM,34.7,34.2,98,30.07,10.0,ESE,4.6,-,N/A,,Clear,120,2014-01-12 08:35:00
2:55 AM,35.8,33.1,90,30.07,10.0,SE,4.6,-,N/A,,Clear,130,2014-01-12 08:55:00
3:15 AM,36.9,32.2,83,30.07,10.0,SSE,3.5,-,N/A,,Clear,150,2014-01-12 09:15:00
3:35 AM,37.4,32.5,83,30.07,10.0,ESE,4.6,-,N/A,,Clear,120,2014-01-12 09:35:00
3:55 AM,36.7,32.0,83,30.06,10.0,ESE,5.8,-,N/A,,Clear,120,2014-01-12 09:55:00
4:15 AM,36.7,32.0,83,30.05,10.0,SE,4.6,-,N/A,,Clear,140,2014-01-12 10:15:00
4:35 AM,36.5,32.0,84,30.05,10.0,Calm,Calm,-,N/A,,Clear,0,2014-01-12 10:35:00
4:55 AM,37.4,32.0,81,30.06,10.0,Calm,Calm,-,N/A,,Clear,0,2014-01-12 10:55:00
5:15 AM,38.5,32.0,78,30.05,10.0,ESE,3.5,-,N/A,,Clear,120,2014-01-12 11:15:00
5:35 AM,37.2,32.0,81,30.06,10.0,Calm,Calm,-,N/A,,Clear,0,2014-01-12 11:35:00
5:55 AM,37.6,32.0,80,30.06,10.0,Calm,Calm,-,N/A,,Clear,0,2014-01-12 11:55:00
6:15 AM,32.4,29.8,90,30.06,10.0,Calm,Calm,-,N/A,,Clear,0,2014-01-12 12:15:00
6:35 AM,33.4,32.4,96,30.06,10.0,SE,3.5,-,N/A,,Clear,140,2014-01-12 12:35:00
6:55 AM,35.6,32.4,88,30.06,10.0,ESE,5.8,-,N/A,,Clear,120,2014-01-12 12:55:00
7:15 AM,35.6,31.1,84,30.06,10.0,SE,4.6,-,N/A,,Clear,130,2014-01-12 13:15:00
7:35 AM,36.1,31.3,83,30.07,10.0,SE,4.6,-,N/A,,Clear,130,2014-01-12 13:35:00
7:55 AM,35.8,31.1,83,30.07,10.0,SE,4.6,-,N/A,,Clear,130,2014-01-12 13:55:00
8:15 AM,37.6,32.0,80,30.07,10.0,SE,3.5,-,N/A,,Clear,130,2014-01-12 14:15:00
8:35 AM,40.1,33.8,78,30.07,10.0,SSE,3.5,-,N/A,,Clear,150,2014-01-12 14:35:00
8:55 AM,43.9,35.1,71,30.08,10.0,SE,3.5,-,N/A,,Clear,140,2014-01-12 14:55:00
9:15 AM,47.5,35.2,63,30.08,10.0,SE,3.5,-,N/A,,Clear,140,2014-01-12 15:15:00
9:35 AM,52.0,36.5,56,30.08,10.0,South,9.2,-,N/A,,Clear,180,2014-01-12 15:35:00
9:55 AM,55.8,33.1,42,30.08,10.0,South,12.7,-,N/A,,Clear,180,2014-01-12 15:55:00
10:15 AM,57.6,32.0,38,30.08,10.0,South,13.8,20.7,N/A,,Clear,190,2014-01-12 16:15:00
10:35 AM,59.9,32.0,35,30.07,10.0,South,10.4,16.1,N/A,,Clear,180,2014-01-12 16:35:00
10:55 AM,62.6,30.6,30,30.06,10.0,South,17.3,24.2,N/A,,Clear,170,2014-01-12 16:55:00
11:15 AM,64.6,30.6,28,30.05,10.0,South,17.3,21.9,N/A,,Clear,190,2014-01-12 17:15:00
11:35 AM,65.8,28.9,25,30.03,10.0,South,21.9,29.9,N/A,,Clear,190,2014-01-12 17:35:00
11:55 AM,67.1,29.1,24,30.01,10.0,South,19.6,25.3,N/A,,Clear,180,2014-01-12 17:55:00
12:15 PM,68.7,27.5,21,30.00,10.0,South,26.5,33.4,N/A,,Clear,190,2014-01-12 18:15:00
12:35 PM,69.1,27.5,21,29.98,10.0,South,25.3,31.1,N/A,,Clear,180,2014-01-12 18:35:00
12:55 PM,69.8,27.5,21,29.96,10.0,South,21.9,31.1,N/A,,Clear,190,2014-01-12 18:55:00
1:15 PM,70.9,28.4,21,29.95,10.0,SSW,19.6,25.3,N/A,,Clear,200,2014-01-12 19:15:00
1:35 PM,71.2,27.9,20,29.94,10.0,SSW,17.3,28.8,N/A,,Clear,200,2014-01-12 19:35:00
1:55 PM,72.0,27.1,19,29.93,10.0,SSW,18.4,32.2,N/A,,Clear,200,2014-01-12 19:55:00
2:15 PM,72.1,28.0,19,29.92,10.0,South,19.6,28.8,N/A,,Clear,190,2014-01-12 20:15:00
2:35 PM,72.0,27.3,19,29.92,10.0,South,17.3,28.8,N/A,,Clear,180,2014-01-12 20:35:00
2:55 PM,71.8,27.1,19,29.92,10.0,South,20.7,32.2,N/A,,Clear,190,2014-01-12 20:55:00
3:15 PM,71.2,27.1,19,29.92,10.0,SSW,19.6,31.1,N/A,,Clear,200,2014-01-12 21:15:00
3:35 PM,70.3,29.1,22,29.91,10.0,South,16.1,21.9,N/A,,Clear,190,2014-01-12 21:35:00
3:55 PM,68.7,30.7,24,29.91,10.0,South,13.8,24.2,N/A,,Clear,190,2014-01-12 21:55:00
4:15 PM,68.2,29.7,24,29.90,10.0,South,11.5,16.1,N/A,,Clear,190,2014-01-12 22:15:00
4:35 PM,67.5,30.4,25,29.90,10.0,South,10.4,21.9,N/A,,Clear,170,2014-01-12 22:35:00
4:55 PM,66.4,30.9,27,29.90,10.0,South,10.4,19.6,N/A,,Clear,180,2014-01-12 22:55:00
5:15 PM,65.8,30.2,26,29.90,10.0,South,11.5,-,N/A,,Clear,180,2014-01-12 23:15:00
5:35 PM,64.8,30.6,28,29.88,10.0,SSE,11.5,-,N/A,,Clear,160,2014-01-12 23:35:00
5:55 PM,63.9,31.5,30,29.88,10.0,South,12.7,18.4,N/A,,Clear,170,2014-01-12 23:55:00
6:15 PM,63.5,31.5,30,29.89,10.0,South,15.0,21.9,N/A,,Clear,170,2014-01-13 00:15:00
6:35 PM,63.3,31.6,31,29.89,10.0,South,11.5,19.6,N/A,,Clear,180,2014-01-13 00:35:00
6:55 PM,62.8,32.0,32,29.89,10.0,South,10.4,-,N/A,,Clear,180,2014-01-13 00:55:00
7:15 PM,62.4,32.2,32,29.87,10.0,South,13.8,18.4,N/A,,Clear,170,2014-01-13 01:15:00
7:35 PM,61.9,32.5,33,29.86,10.0,SSE,11.5,-,N/A,,Clear,160,2014-01-13 01:35:00
7:55 PM,62.1,32.4,33,29.87,10.0,South,9.2,18.4,N/A,,Clear,170,2014-01-13 01:55:00
8:15 PM,60.4,32.7,35,29.86,10.0,South,11.5,-,N/A,,Clear,170,2014-01-13 02:15:00
8:35 PM,61.0,33.3,35,29.85,10.0,South,11.5,-,N/A,,Clear,170,2014-01-13 02:35:00
8:55 PM,61.5,34.7,37,29.86,10.0,South,11.5,18.4,N/A,,Clear,180,2014-01-13 02:55:00
9:15 PM,61.5,37.8,41,29.87,10.0,South,13.8,19.6,N/A,,Clear,170,2014-01-13 03:15:00
9:35 PM,61.5,41.0,47,29.87,10.0,South,13.8,20.7,N/A,,Clear,180,2014-01-13 03:35:00
9:55 PM,61.5,43.5,52,29.86,10.0,South,16.1,26.5,N/A,,Clear,180,2014-01-13 03:55:00
10:15 PM,61.5,44.8,54,29.86,10.0,South,15.0,21.9,N/A,,Clear,180,2014-01-13 04:15:00
10:35 PM,61.2,45.9,57,29.86,10.0,South,13.8,23.0,N/A,,Clear,180,2014-01-13 04:35:00
10:55 PM,61.0,46.6,59,29.86,10.0,South,17.3,21.9,N/A,,Clear,180,2014-01-13 04:55:00
11:15 PM,60.8,47.5,62,29.86,10.0,South,15.0,18.4,N/A,,Clear,180,2014-01-13 05:15:00
11:35 PM,60.8,48.2,63,29.86,10.0,South,11.5,20.7,N/A,,Clear,190,2014-01-13 05:35:00
11:55 PM,60.8,49.1,65,29.85,10.0,South,11.5,19.6,N/A,,Clear,190,2014-01-13 05:55:00